| time (UTC) | temp F | wind direction | speed knots | gust knots | rain 1hr in | rain 24hr in | rain mn in | humidity % | barometer mb |
| 20260509005948 | 65 | 261 | 9.6 | 11.3 | 0.00 | 0.00 | 0.00 | 24 | 1013.8 |
| 20260509005446 | 65 | 238 | 6.1 | 9.6 | 0.00 | 0.00 | 0.00 | 24 | 1013.6 |
| 20260509004946 | 65 | 250 | 7.8 | 11.3 | 0.00 | 0.00 | 0.00 | 25 | 1013.5 |
| 20260509004443 | 66 | 245 | 1.7 | 7.8 | 0.00 | 0.00 | 0.00 | 26 | 1013.5 |
| 20260509003941 | 65 | 277 | 3.5 | 8.7 | 0.00 | 0.00 | 0.00 | 25 | 1013.6 |
| 20260509003439 | 66 | 259 | 5.2 | 12.2 | 0.00 | 0.00 | 0.00 | 25 | 1013.6 |
| 20260509002935 | 66 | 203 | 2.6 | 5.2 | 0.00 | 0.00 | 0.00 | 26 | 1013.5 |
| 20260509002433 | 66 | 223 | 3.5 | 7.8 | 0.00 | 0.00 | 0.00 | 25 | 1013.5 |
| 20260509001930 | 66 | 277 | 2.6 | 10.4 | 0.00 | 0.00 | 0.00 | 25 | 1013.6 |
| 20260509001426 | 66 | 235 | 2.6 | 7.8 | 0.00 | 0.00 | 0.00 | 28 | 1013.5 |
| 20260509000923 | 66 | 246 | 7.0 | 12.2 | 0.00 | 0.00 | 0.00 | 25 | 1013.7 |
| 20260509000421 | 66 | 239 | 3.5 | 10.4 | 0.00 | 0.00 | 0.00 | 26 | 1013.4 |
| 20260508235917 | 66 | 233 | 6.1 | 13.0 | 0.00 | 0.00 | 0.00 | 27 | 1013.6 |
| 20260508235415 | 66 | 263 | 8.7 | 17.4 | 0.00 | 0.00 | 0.00 | 26 | 1013.5 |
| 20260508234911 | 67 | 239 | 9.6 | 17.4 | 0.00 | 0.00 | 0.00 | 25 | 1013.4 |
| 20260508234409 | 67 | 244 | 9.6 | 15.6 | 0.00 | 0.00 | 0.00 | 27 | 1013.4 |
| 20260508233906 | 67 | 232 | 2.6 | 8.7 | 0.00 | 0.00 | 0.00 | 27 | 1013.5 |
| 20260508233406 | 68 | 283 | 6.1 | 11.3 | 0.00 | 0.00 | 0.00 | 26 | 1013.4 |
| 20260508232902 | 68 | 240 | 3.5 | 17.4 | 0.00 | 0.00 | 0.00 | 27 | 1013.4 |
| 20260508232358 | 68 | 255 | 2.6 | 13.9 | 0.00 | 0.00 | 0.00 | 28 | 1013.5 |
| 20260508231857 | 69 | 249 | 2.6 | 7.0 | 0.00 | 0.00 | 0.00 | 28 | 1013.2 |
| 20260508231353 | 69 | 212 | 5.2 | 6.1 | 0.00 | 0.00 | 0.00 | 29 | 1013.4 |
| 20260508230850 | 69 | 259 | 4.3 | 12.2 | 0.00 | 0.00 | 0.00 | 29 | 1013.5 |
| 20260508230346 | 69 | 252 | 1.7 | 10.4 | 0.00 | 0.00 | 0.00 | 35 | 1013.4 |
| 20260508225844 | 69 | 226 | 6.1 | 9.6 | 0.00 | 0.00 | 0.00 | 36 | 1013.2 |
| 20260508225340 | 68 | 275 | 4.3 | 9.6 | 0.00 | 0.00 | 0.00 | 38 | 1013.1 |
| 20260508224838 | 69 | 257 | 3.5 | 6.1 | 0.00 | 0.00 | 0.00 | 41 | 1013.4 |
| 20260508224335 | 69 | 283 | 2.6 | 4.3 | 0.00 | 0.00 | 0.00 | 40 | 1013.2 |
| 20260508223833 | 69 | 257 | 3.5 | 5.2 | 0.00 | 0.00 | 0.00 | 40 | 1013.2 |
| 20260508223330 | 68 | 278 | 4.3 | 4.3 | 0.00 | 0.00 | 0.00 | 40 | 1013.5 |
| 20260508222827 | 69 | 305 | 2.6 | 4.3 | 0.00 | 0.00 | 0.00 | 42 | 1013.4 |
| 20260508222325 | 69 | 301 | 1.7 | 3.5 | 0.00 | 0.00 | 0.00 | 42 | 1013.1 |
| 20260508221821 | 70 | 304 | 0.0 | 2.6 | 0.00 | 0.00 | 0.00 | 39 | 1013.4 |
| 20260508221316 | 70 | 220 | 1.7 | 1.7 | 0.00 | 0.00 | 0.00 | 39 | 1013.2 |
| 20260508220813 | 70 | 75 | 0.9 | 2.6 | 0.00 | 0.00 | 0.00 | 39 | 1013.1 |
| 20260508220310 | 69 | 255 | 0.0 | 2.6 | 0.00 | 0.00 | 0.00 | 38 | 1013.2 |
| 20260508215807 | 69 | 257 | 1.7 | 4.3 | 0.00 | 0.00 | 0.00 | 39 | 1013.4 |
| 20260508215306 | 69 | 337 | 0.0 | 4.3 | 0.00 | 0.00 | 0.00 | 39 | 1013.2 |
| 20260508214800 | 69 | 5 | 0.9 | 3.5 | 0.00 | 0.00 | 0.00 | 39 | 1013.4 |
| 20260508214257 | 69 | 282 | 0.0 | 5.2 | 0.00 | 0.00 | 0.00 | 39 | 1013.4 |
| 20260508213754 | 69 | 356 | 1.7 | 4.3 | 0.00 | 0.00 | 0.00 | 39 | 1013.4 |
| 20260508213250 | 70 | 261 | 3.5 | 3.5 | 0.00 | 0.00 | 0.00 | 41 | 1013.4 |
| 20260508212747 | 70 | 286 | 0.0 | 2.6 | 0.00 | 0.00 | 0.00 | 41 | 1013.6 |
| 20260508212243 | 69 | 4 | 1.7 | 3.5 | 0.00 | 0.00 | 0.00 | 40 | 1013.7 |
| 20260508211739 | 69 | 0 | 1.7 | 3.5 | 0.00 | 0.00 | 0.00 | 41 | 1013.6 |
| 20260508211235 | 69 | 236 | 2.6 | 2.6 | 0.00 | 0.00 | 0.00 | 41 | 1013.6 |
| 20260508210733 | 69 | 277 | 0.9 | 4.3 | 0.00 | 0.00 | 0.00 | 41 | 1013.7 |
| 20260508210229 | 69 | 11 | 1.7 | 4.3 | 0.00 | 0.00 | 0.00 | 40 | 1013.8 |
| 20260508205726 | 69 | 346 | 0.9 | 2.6 | 0.00 | 0.00 | 0.00 | 39 | 1013.8 |
| 20260508205223 | 69 | 20 | 0.0 | 2.6 | 0.00 | 0.00 | 0.00 | 39 | 1013.8 |
| 20260508204719 | 69 | 312 | 1.7 | 2.6 | 0.00 | 0.00 | 0.00 | 41 | 1013.9 |
| 20260508204215 | 69 | 35 | 0.0 | 2.6 | 0.00 | 0.00 | 0.00 | 40 | 1013.9 |
| 20260508203712 | 69 | 349 | 2.6 | 5.2 | 0.00 | 0.00 | 0.00 | 42 | 1013.8 |
| 20260508203208 | 68 | 279 | 3.5 | 5.2 | 0.00 | 0.00 | 0.00 | 44 | 1013.9 |
| 20260508202704 | 68 | 254 | 4.3 | 5.2 | 0.00 | 0.00 | 0.00 | 43 | 1014.1 |
| 20260508202201 | 69 | 286 | 2.6 | 4.3 | 0.00 | 0.00 | 0.00 | 43 | 1014.4 |
| 20260508201658 | 67 | 350 | 1.7 | 3.5 | 0.00 | 0.00 | 0.00 | 43 | 1014.0 |
| 20260508201155 | 67 | 272 | 4.3 | 6.1 | 0.00 | 0.00 | 0.00 | 43 | 1013.9 |
| 20260508200652 | 67 | 248 | 4.3 | 6.1 | 0.00 | 0.00 | 0.00 | 44 | 1014.0 |
| 20260508200147 | 68 | 294 | 1.7 | 4.3 | 0.00 | 0.00 | 0.00 | 44 | 1014.1 |
| 20260508195644 | 68 | 315 | 1.7 | 5.2 | 0.00 | 0.00 | 0.00 | 44 | 1014.4 |
| 20260508195141 | 67 | 327 | 1.7 | 3.5 | 0.00 | 0.00 | 0.00 | 45 | 1014.1 |
| 20260508194637 | 67 | 331 | 0.9 | 4.3 | 0.00 | 0.00 | 0.00 | 43 | 1014.2 |
| 20260508194134 | 67 | 326 | 2.6 | 3.5 | 0.00 | 0.00 | 0.00 | 44 | 1014.4 |
| 20260508193631 | 67 | 270 | 5.2 | 6.1 | 0.00 | 0.00 | 0.00 | 44 | 1014.5 |
| 20260508193128 | 67 | 270 | 4.3 | 7.0 | 0.00 | 0.00 | 0.00 | 45 | 1014.5 |
| 20260508192625 | 68 | 307 | 1.7 | 5.2 | 0.00 | 0.00 | 0.00 | 46 | 1014.1 |
| 20260508192122 | 67 | 8 | 0.0 | 3.5 | 0.00 | 0.00 | 0.00 | 43 | 1014.5 |
| 20260508191618 | 67 | 290 | 2.6 | 4.3 | 0.00 | 0.00 | 0.00 | 44 | 1014.6 |
| 20260508191115 | 67 | 311 | 2.6 | 4.3 | 0.00 | 0.00 | 0.00 | 44 | 1014.6 |
| 20260508190613 | 67 | 57 | 3.5 | 7.0 | 0.00 | 0.00 | 0.00 | 46 | 1014.4 |
| 20260508190109 | 66 | 270 | 1.7 | 4.3 | 0.00 | 0.00 | 0.00 | 45 | 1014.6 |
| 20260508185606 | 66 | 270 | 2.6 | 5.2 | 0.00 | 0.00 | 0.00 | 45 | 1014.9 |
| 20260508185103 | 66 | 290 | 4.3 | 6.1 | 0.00 | 0.00 | 0.00 | 46 | 1014.8 |
| 20260508184601 | 66 | 333 | 4.3 | 6.1 | 0.00 | 0.00 | 0.00 | 45 | 1014.8 |
| 20260508184057 | 67 | 59 | 1.7 | 3.5 | 0.00 | 0.00 | 0.00 | 45 | 1014.9 |
| 20260508183554 | 66 | 327 | 1.7 | 6.1 | 0.00 | 0.00 | 0.00 | 46 | 1015.1 |
| 20260508183050 | 65 | 66 | 0.9 | 6.1 | 0.00 | 0.00 | 0.00 | 46 | 1015.1 |
| 20260508182547 | 65 | 29 | 2.6 | 4.3 | 0.00 | 0.00 | 0.00 | 48 | 1015.0 |
| 20260508182043 | 64 | 19 | 1.7 | 5.2 | 0.00 | 0.00 | 0.00 | 48 | 1015.4 |
| 20260508181538 | 64 | 192 | 1.7 | 4.3 | 0.00 | 0.00 | 0.00 | 48 | 1015.5 |
| 20260508181036 | 64 | 142 | 4.3 | 4.3 | 0.00 | 0.00 | 0.00 | 48 | 1015.2 |
| 20260508180533 | 63 | 323 | 2.6 | 7.0 | 0.00 | 0.00 | 0.00 | 50 | 1015.4 |
| 20260508180029 | 64 | 0 | 1.7 | 3.5 | 0.00 | 0.00 | 0.00 | 51 | 1015.4 |
| 20260508175526 | 63 | 71 | 1.7 | 3.5 | 0.00 | 0.00 | 0.00 | 50 | 1015.5 |
| 20260508175023 | 63 | 338 | 1.7 | 4.3 | 0.00 | 0.00 | 0.00 | 51 | 1015.5 |
| 20260508174520 | 63 | 358 | 2.6 | 5.2 | 0.00 | 0.00 | 0.00 | 51 | 1015.7 |
| 20260508174017 | 62 | 270 | 2.6 | 4.3 | 0.00 | 0.00 | 0.00 | 52 | 1015.9 |
| 20260508173514 | 62 | 7 | 1.7 | 3.5 | 0.00 | 0.00 | 0.00 | 53 | 1015.8 |
| 20260508173010 | 61 | 321 | 1.7 | 5.2 | 0.00 | 0.00 | 0.00 | 53 | 1015.8 |
| 20260508172508 | 61 | 286 | 3.5 | 6.1 | 0.00 | 0.00 | 0.00 | 53 | 1015.7 |
| 20260508172004 | 61 | 78 | 1.7 | 4.3 | 0.00 | 0.00 | 0.00 | 55 | 1015.9 |
| 20260508171501 | 61 | 56 | 1.7 | 4.3 | 0.00 | 0.00 | 0.00 | 53 | 1015.9 |
| 20260508170957 | 62 | 69 | 0.0 | 0.9 | 0.00 | 0.00 | 0.00 | 54 | 1015.9 |
| 20260508170454 | 60 | 318 | 2.6 | 3.5 | 0.00 | 0.00 | 0.00 | 56 | 1016.0 |
| 20260508165951 | 61 | 340 | 4.3 | 6.1 | 0.00 | 0.00 | 0.00 | 55 | 1016.1 |
| 20260508165449 | 59 | 100 | 0.0 | 3.5 | 0.00 | 0.00 | 0.00 | 56 | 1016.2 |
| 20260508164944 | 60 | 226 | 4.3 | 6.1 | 0.00 | 0.00 | 0.00 | 56 | 1016.1 |
| 20260508164442 | 59 | 303 | 2.6 | 2.6 | 0.00 | 0.00 | 0.00 | 58 | 1016.1 |
| 20260508163939 | 58 | 127 | 2.6 | 3.5 | 0.00 | 0.00 | 0.00 | 59 | 1016.1 |
| 20260508163437 | 57 | 280 | 3.5 | 5.2 | 0.00 | 0.00 | 0.00 | 60 | 1016.5 |
| 20260508162932 | 57 | 18 | 2.6 | 4.3 | 0.00 | 0.00 | 0.00 | 61 | 1016.4 |
| 20260508162430 | 57 | 299 | 1.7 | 4.3 | 0.00 | 0.00 | 0.00 | 60 | 1016.2 |
| 20260508161926 | 57 | 266 | 0.0 | 5.2 | 0.00 | 0.00 | 0.00 | 62 | 1016.4 |
| 20260508161423 | 57 | 197 | 0.0 | 1.7 | 0.00 | 0.00 | 0.00 | 59 | 1016.7 |
| 20260508160921 | 56 | 213 | 1.7 | 3.5 | 0.00 | 0.00 | 0.00 | 61 | 1016.4 |
| 20260508160420 | 55 | 286 | 0.9 | 2.6 | 0.00 | 0.00 | 0.00 | 62 | 1016.5 |
| 20260508155915 | 55 | 304 | 1.7 | 4.3 | 0.00 | 0.00 | 0.00 | 63 | 1016.5 |
| 20260508155413 | 56 | 348 | 1.7 | 3.5 | 0.00 | 0.00 | 0.00 | 64 | 1016.6 |
| 20260508154910 | 55 | 0 | 0.0 | 3.5 | 0.00 | 0.00 | 0.00 | 63 | 1016.6 |
| 20260508154407 | 55 | 12 | 0.9 | 4.3 | 0.00 | 0.00 | 0.00 | 63 | 1016.7 |
| 20260508153904 | 54 | 0 | 0.0 | 3.5 | 0.00 | 0.00 | 0.00 | 67 | 1016.6 |
| 20260508153401 | 54 | 290 | 2.6 | 3.5 | 0.00 | 0.00 | 0.00 | 67 | 1016.6 |
| 20260508152857 | 54 | 0 | 1.7 | 2.6 | 0.00 | 0.00 | 0.00 | 66 | 1016.6 |
| 20260508152353 | 53 | 307 | 1.7 | 3.5 | 0.00 | 0.00 | 0.00 | 67 | 1016.8 |
| 20260508151850 | 52 | 270 | 0.9 | 3.5 | 0.00 | 0.00 | 0.00 | 68 | 1016.8 |
| 20260508151347 | 52 | 172 | 0.0 | 2.6 | 0.00 | 0.00 | 0.00 | 67 | 1016.7 |
| 20260508150843 | 52 | 300 | 0.9 | 2.6 | 0.00 | 0.00 | 0.00 | 69 | 1016.6 |
| 20260508150340 | 51 | 293 | 3.5 | 3.5 | 0.00 | 0.00 | 0.00 | 71 | 1016.9 |
| 20260508145836 | 51 | 354 | 2.6 | 3.5 | 0.00 | 0.00 | 0.00 | 70 | 1016.8 |
| 20260508145332 | 51 | 279 | 0.0 | 2.6 | 0.00 | 0.00 | 0.00 | 71 | 1016.7 |
| 20260508144829 | 52 | 295 | 1.7 | 2.6 | 0.00 | 0.00 | 0.00 | 70 | 1016.8 |
| 20260508144327 | 53 | 57 | 0.9 | 2.6 | 0.00 | 0.00 | 0.00 | 67 | 1016.8 |
| 20260508143824 | 51 | 82 | 0.0 | 1.7 | 0.00 | 0.00 | 0.00 | 71 | 1016.7 |
| 20260508143321 | 50 | 15 | 0.0 | 1.7 | 0.00 | 0.00 | 0.00 | 73 | 1016.7 |
| 20260508142818 | 50 | 0 | 0.0 | 2.6 | 0.00 | 0.00 | 0.00 | 74 | 1016.6 |
| 20260508142315 | 50 | 66 | 0.9 | 2.6 | 0.00 | 0.00 | 0.00 | 72 | 1016.8 |
| 20260508141811 | 50 | 56 | 1.7 | 1.7 | 0.00 | 0.00 | 0.00 | 73 | 1016.6 |
| 20260508141309 | 49 | 180 | 1.7 | 1.7 | 0.00 | 0.00 | 0.00 | 76 | 1016.7 |
| 20260508140806 | 48 | 187 | 0.0 | 0.9 | 0.00 | 0.00 | 0.00 | 77 | 1016.9 |
| 20260508140303 | 46 | 105 | 0.9 | 1.7 | 0.00 | 0.00 | 0.00 | 81 | 1016.7 |
| 20260508135758 | 46 | 96 | 1.7 | 1.7 | 0.00 | 0.00 | 0.00 | 83 | 1016.8 |
| 20260508135255 | 46 | 95 | 1.7 | 2.6 | 0.00 | 0.00 | 0.00 | 82 | 1016.8 |
| 20260508134750 | 45 | 81 | 1.7 | 2.6 | 0.00 | 0.00 | 0.00 | 84 | 1016.9 |
| 20260508134248 | 44 | 98 | 0.0 | 0.9 | 0.00 | 0.00 | 0.00 | 85 | 1016.7 |
| 20260508133744 | 44 | 120 | 0.0 | 0.9 | 0.00 | 0.00 | 0.00 | 84 | 1016.7 |
| 20260508133242 | 44 | 120 | 0.9 | 1.7 | 0.00 | 0.00 | 0.00 | 84 | 1016.7 |
| 20260508132740 | 45 | 270 | 0.0 | 1.7 | 0.00 | 0.00 | 0.00 | 84 | 1016.8 |
| 20260508132237 | 45 | 264 | 1.7 | 1.7 | 0.00 | 0.00 | 0.00 | 84 | 1016.7 |
| 20260508131732 | 44 | 180 | 0.0 | 1.7 | 0.00 | 0.00 | 0.00 | 85 | 1016.7 |
| 20260508131229 | 44 | 204 | 1.7 | 1.7 | 0.00 | 0.00 | 0.00 | 86 | 1016.6 |
| 20260508130726 | 43 | 102 | 2.6 | 3.5 | 0.00 | 0.00 | 0.00 | 86 | 1016.4 |
| 20260508130223 | 43 | 69 | 0.9 | 2.6 | 0.00 | 0.00 | 0.00 | 86 | 1016.5 |
| 20260508125718 | 43 | 105 | 1.7 | 1.7 | 0.00 | 0.00 | 0.00 | 86 | 1016.5 |
| 20260508125215 | 43 | 139 | 1.7 | 1.7 | 0.00 | 0.00 | 0.00 | 85 | 1016.4 |
| 20260508124713 | 43 | 120 | 0.0 | 1.7 | 0.00 | 0.00 | 0.00 | 86 | 1016.2 |
| 20260508124210 | 44 | 135 | 0.0 | 1.7 | 0.00 | 0.00 | 0.00 | 85 | 1016.2 |
| 20260508123709 | 43 | 165 | 0.0 | 0.0 | 0.00 | 0.00 | 0.00 | 85 | 1016.4 |
| 20260508123206 | 43 | 143 | 0.0 | 2.6 | 0.00 | 0.00 | 0.00 | 85 | 1016.2 |
| 20260508122702 | 43 | 105 | 1.7 | 1.7 | 0.00 | 0.00 | 0.00 | 86 | 1016.4 |
| 20260508122159 | 43 | 151 | 2.6 | 3.5 | 0.00 | 0.00 | 0.00 | 86 | 1016.1 |
| 20260508121657 | 42 | 117 | 1.7 | 2.6 | 0.00 | 0.00 | 0.00 | 86 | 1016.0 |
| 20260508121155 | 43 | 117 | 1.7 | 1.7 | 0.00 | 0.00 | 0.00 | 86 | 1016.0 |
| 20260508120652 | 43 | 114 | 0.9 | 2.6 | 0.00 | 0.00 | 0.00 | 85 | 1015.9 |
| 20260508120150 | 43 | 102 | 1.7 | 2.6 | 0.00 | 0.00 | 0.00 | 84 | 1016.1 |
| 20260508115648 | 43 | 104 | 2.6 | 2.6 | 0.00 | 0.00 | 0.00 | 84 | 1016.0 |
| 20260508115144 | 44 | 97 | 2.6 | 2.6 | 0.00 | 0.00 | 0.00 | 84 | 1016.0 |
| 20260508114641 | 44 | 131 | 0.0 | 1.7 | 0.00 | 0.00 | 0.00 | 83 | 1016.1 |
| 20260508114137 | 45 | 120 | 1.7 | 2.6 | 0.00 | 0.00 | 0.00 | 82 | 1016.0 |
| 20260508113635 | 44 | 90 | 1.7 | 2.6 | 0.00 | 0.00 | 0.00 | 83 | 1015.9 |
| 20260508113133 | 44 | 117 | 1.7 | 3.5 | 0.00 | 0.00 | 0.00 | 83 | 1015.8 |
| 20260508112629 | 44 | 114 | 0.0 | 1.7 | 0.00 | 0.00 | 0.00 | 83 | 1016.0 |
| 20260508112126 | 44 | 111 | 0.9 | 1.7 | 0.00 | 0.00 | 0.00 | 82 | 1015.9 |
| 20260508111622 | 44 | 135 | 0.0 | 2.6 | 0.00 | 0.00 | 0.00 | 83 | 1016.2 |
| 20260508111120 | 44 | 90 | 0.9 | 2.6 | 0.00 | 0.00 | 0.00 | 83 | 1016.1 |
| 20260508110618 | 44 | 101 | 1.7 | 1.7 | 0.00 | 0.00 | 0.00 | 82 | 1016.1 |
| 20260508110113 | 45 | 86 | 0.0 | 3.5 | 0.00 | 0.00 | 0.00 | 81 | 1015.9 |
| 20260508105608 | 45 | 113 | 2.6 | 5.2 | 0.00 | 0.00 | 0.00 | 81 | 1015.8 |
| 20260508105106 | 45 | 95 | 2.6 | 4.3 | 0.00 | 0.00 | 0.00 | 81 | 1015.9 |
| 20260508104603 | 45 | 107 | 3.5 | 3.5 | 0.00 | 0.00 | 0.00 | 81 | 1016.0 |
| 20260508104100 | 45 | 97 | 3.5 | 3.5 | 0.00 | 0.00 | 0.00 | 81 | 1016.1 |
| 20260508103557 | 46 | 103 | 2.6 | 3.5 | 0.00 | 0.00 | 0.00 | 79 | 1015.9 |
| 20260508103054 | 46 | 90 | 1.7 | 1.7 | 0.00 | 0.00 | 0.00 | 79 | 1015.9 |
| 20260508102552 | 46 | 120 | 0.9 | 2.6 | 0.00 | 0.00 | 0.00 | 79 | 1015.9 |
| 20260508102049 | 46 | 108 | 1.7 | 2.6 | 0.00 | 0.00 | 0.00 | 79 | 1015.8 |
| 20260508101546 | 47 | 124 | 1.7 | 4.3 | 0.00 | 0.00 | 0.00 | 77 | 1015.7 |
| 20260508101043 | 46 | 94 | 2.6 | 2.6 | 0.00 | 0.00 | 0.00 | 78 | 1015.7 |
| 20260508100542 | 46 | 103 | 1.7 | 2.6 | 0.00 | 0.00 | 0.00 | 79 | 1015.6 |
| 20260508100038 | 47 | 90 | 1.7 | 2.6 | 0.00 | 0.00 | 0.00 | 77 | 1015.7 |
| 20260508095535 | 47 | 84 | 2.6 | 2.6 | 0.00 | 0.00 | 0.00 | 77 | 1015.6 |
| 20260508095032 | 47 | 111 | 0.9 | 1.7 | 0.00 | 0.00 | 0.00 | 78 | 1015.4 |
| 20260508094529 | 46 | 85 | 1.7 | 1.7 | 0.00 | 0.00 | 0.00 | 78 | 1015.4 |
| 20260508094026 | 47 | 111 | 2.6 | 2.6 | 0.00 | 0.00 | 0.00 | 77 | 1015.6 |
| 20260508093523 | 47 | 106 | 2.6 | 2.6 | 0.00 | 0.00 | 0.00 | 77 | 1015.5 |
| 20260508093021 | 46 | 104 | 2.6 | 2.6 | 0.00 | 0.00 | 0.00 | 78 | 1015.6 |
| 20260508092518 | 46 | 95 | 1.7 | 1.7 | 0.00 | 0.00 | 0.00 | 78 | 1015.4 |
| 20260508092017 | 46 | 132 | 1.7 | 2.6 | 0.00 | 0.00 | 0.00 | 78 | 1015.2 |
| 20260508091513 | 47 | 121 | 1.7 | 2.6 | 0.00 | 0.00 | 0.00 | 77 | 1015.4 |
| 20260508091010 | 48 | 95 | 1.7 | 2.6 | 0.00 | 0.00 | 0.00 | 76 | 1015.4 |
| 20260508090508 | 48 | 107 | 1.7 | 2.6 | 0.00 | 0.00 | 0.00 | 75 | 1015.2 |
| 20260508090005 | 48 | 69 | 0.9 | 2.6 | 0.00 | 0.00 | 0.00 | 75 | 1015.5 |
| 20260508085501 | 48 | 109 | 1.7 | 1.7 | 0.00 | 0.00 | 0.00 | 74 | 1015.4 |
| 20260508084958 | 48 | 87 | 2.6 | 2.6 | 0.00 | 0.00 | 0.00 | 75 | 1015.5 |
| 20260508084455 | 47 | 97 | 0.9 | 2.6 | 0.00 | 0.00 | 0.00 | 76 | 1015.5 |
| 20260508083953 | 48 | 160 | 0.0 | 2.6 | 0.00 | 0.00 | 0.00 | 75 | 1015.5 |
| 20260508083449 | 47 | 115 | 2.6 | 4.3 | 0.00 | 0.00 | 0.00 | 76 | 1015.5 |
| 20260508082944 | 48 | 117 | 2.6 | 3.5 | 0.00 | 0.00 | 0.00 | 75 | 1015.2 |
| 20260508082442 | 48 | 118 | 3.5 | 4.3 | 0.00 | 0.00 | 0.00 | 74 | 1015.4 |
| 20260508081939 | 49 | 119 | 3.5 | 4.3 | 0.00 | 0.00 | 0.00 | 73 | 1015.4 |
| 20260508081436 | 48 | 96 | 4.3 | 5.2 | 0.00 | 0.00 | 0.00 | 74 | 1015.4 |
| 20260508080932 | 48 | 117 | 3.5 | 5.2 | 0.00 | 0.00 | 0.00 | 74 | 1015.4 |
| 20260508080431 | 49 | 72 | 2.6 | 4.3 | 0.00 | 0.00 | 0.00 | 73 | 1015.2 |
| 20260508075927 | 49 | 121 | 3.5 | 3.5 | 0.00 | 0.00 | 0.00 | 72 | 1015.2 |
| 20260508075424 | 49 | 109 | 2.6 | 4.3 | 0.00 | 0.00 | 0.00 | 72 | 1015.2 |
| 20260508074922 | 49 | 90 | 1.7 | 3.5 | 0.00 | 0.00 | 0.00 | 72 | 1015.2 |
| 20260508074419 | 50 | 101 | 2.6 | 3.5 | 0.00 | 0.00 | 0.00 | 70 | 1015.2 |
| 20260508073916 | 51 | 87 | 2.6 | 2.6 | 0.00 | 0.00 | 0.00 | 68 | 1015.1 |
| 20260508073414 | 52 | 105 | 1.7 | 1.7 | 0.00 | 0.00 | 0.00 | 66 | 1015.1 |
| 20260508072910 | 52 | 295 | 0.0 | 2.6 | 0.00 | 0.00 | 0.00 | 65 | 1015.4 |
| 20260508072406 | 51 | 82 | 0.9 | 1.7 | 0.00 | 0.00 | 0.00 | 67 | 1015.1 |
| 20260508071904 | 52 | 96 | 1.7 | 1.7 | 0.00 | 0.00 | 0.00 | 66 | 1015.2 |
| 20260508071402 | 52 | 117 | 0.9 | 1.7 | 0.00 | 0.00 | 0.00 | 66 | 1015.0 |
| 20260508070859 | 53 | 113 | 1.7 | 5.2 | 0.00 | 0.00 | 0.00 | 63 | 1015.0 |
| 20260508070357 | 53 | 102 | 3.5 | 7.8 | 0.00 | 0.00 | 0.00 | 62 | 1015.0 |
| 20260508065855 | 53 | 108 | 6.1 | 7.8 | 0.00 | 0.00 | 0.00 | 63 | 1015.1 |
| 20260508065353 | 53 | 74 | 5.2 | 6.1 | 0.00 | 0.00 | 0.00 | 63 | 1015.0 |
| 20260508064851 | 53 | 96 | 5.2 | 7.0 | 0.00 | 0.00 | 0.00 | 63 | 1015.0 |
| 20260508064348 | 53 | 105 | 5.2 | 7.8 | 0.00 | 0.00 | 0.00 | 62 | 1015.0 |
| 20260508063846 | 53 | 129 | 5.2 | 8.7 | 0.00 | 0.00 | 0.00 | 63 | 1015.1 |
| 20260508063343 | 53 | 94 | 4.3 | 6.1 | 0.00 | 0.00 | 0.00 | 63 | 1015.0 |
| 20260508062840 | 53 | 113 | 3.5 | 5.2 | 0.00 | 0.00 | 0.00 | 63 | 1014.9 |
| 20260508062337 | 53 | 95 | 5.2 | 5.2 | 0.00 | 0.00 | 0.00 | 63 | 1014.9 |
| 20260508061834 | 52 | 105 | 4.3 | 5.2 | 0.00 | 0.00 | 0.00 | 65 | 1015.0 |
| 20260508061332 | 51 | 105 | 4.3 | 4.3 | 0.00 | 0.00 | 0.00 | 66 | 1015.0 |
| 20260508060828 | 52 | 107 | 4.3 | 4.3 | 0.00 | 0.00 | 0.00 | 65 | 1015.1 |
| 20260508060326 | 52 | 101 | 3.5 | 4.3 | 0.00 | 0.00 | 0.00 | 64 | 1014.9 |
| 20260508055820 | 53 | 75 | 2.6 | 3.5 | 0.00 | 0.00 | 0.00 | 62 | 1015.0 |
| 20260508055319 | 53 | 73 | 2.6 | 3.5 | 0.00 | 0.00 | 0.00 | 61 | 1014.9 |
| 20260508054815 | 53 | 86 | 2.6 | 3.5 | 0.00 | 0.00 | 0.00 | 62 | 1014.9 |
| 20260508054313 | 53 | 105 | 2.6 | 3.5 | 0.00 | 0.00 | 0.00 | 61 | 1014.6 |
| 20260508053809 | 53 | 104 | 3.5 | 4.3 | 0.00 | 0.00 | 0.00 | 61 | 1014.8 |
| 20260508053307 | 53 | 94 | 1.7 | 4.3 | 0.00 | 0.00 | 0.00 | 61 | 1014.7 |
| 20260508052804 | 53 | 92 | 4.3 | 4.3 | 0.00 | 0.00 | 0.00 | 61 | 1014.5 |
| 20260508052301 | 54 | 105 | 2.6 | 3.5 | 0.00 | 0.00 | 0.00 | 60 | 1014.4 |
| 20260508051757 | 54 | 103 | 2.6 | 3.5 | 0.00 | 0.00 | 0.00 | 59 | 1014.5 |
| 20260508051252 | 54 | 99 | 2.6 | 2.6 | 0.00 | 0.00 | 0.00 | 59 | 1014.5 |
| 20260508050749 | 55 | 105 | 3.5 | 4.3 | 0.00 | 0.00 | 0.00 | 58 | 1014.5 |
| 20260508050246 | 55 | 105 | 3.5 | 3.5 | 0.00 | 0.00 | 0.00 | 57 | 1014.7 |
| 20260508045741 | 55 | 105 | 2.6 | 4.3 | 0.00 | 0.00 | 0.00 | 57 | 1014.6 |
| 20260508045240 | 55 | 102 | 2.6 | 4.3 | 0.00 | 0.00 | 0.00 | 57 | 1014.5 |
| 20260508044737 | 55 | 105 | 3.5 | 5.2 | 0.00 | 0.00 | 0.00 | 56 | 1014.5 |
| 20260508044234 | 55 | 103 | 1.7 | 2.6 | 0.00 | 0.00 | 0.00 | 57 | 1014.4 |
| 20260508043730 | 56 | 80 | 4.3 | 6.1 | 0.00 | 0.00 | 0.00 | 55 | 1014.2 |
| 20260508043228 | 56 | 170 | 1.7 | 4.3 | 0.00 | 0.00 | 0.00 | 56 | 1014.2 |
| 20260508042724 | 56 | 107 | 4.3 | 4.3 | 0.00 | 0.00 | 0.00 | 55 | 1014.1 |
| 20260508042221 | 56 | 93 | 2.6 | 3.5 | 0.00 | 0.00 | 0.00 | 56 | 1014.4 |
| 20260508041718 | 56 | 90 | 3.5 | 3.5 | 0.00 | 0.00 | 0.00 | 56 | 1014.4 |
| 20260508041215 | 56 | 93 | 2.6 | 3.5 | 0.00 | 0.00 | 0.00 | 55 | 1014.4 |
| 20260508040711 | 57 | 90 | 3.5 | 4.3 | 0.00 | 0.00 | 0.00 | 54 | 1014.1 |
| 20260508040208 | 57 | 112 | 2.6 | 4.3 | 0.00 | 0.00 | 0.00 | 54 | 1014.2 |
| 20260508035706 | 57 | 74 | 1.7 | 4.3 | 0.00 | 0.00 | 0.00 | 54 | 1014.0 |
| 20260508035203 | 57 | 99 | 2.6 | 4.3 | 0.00 | 0.00 | 0.00 | 54 | 1013.9 |
| 20260508034659 | 58 | 84 | 4.3 | 4.3 | 0.00 | 0.00 | 0.00 | 52 | 1013.9 |
| 20260508034156 | 59 | 106 | 3.5 | 4.3 | 0.00 | 0.00 | 0.00 | 52 | 1013.9 |
| 20260508033654 | 59 | 105 | 3.5 | 4.3 | 0.00 | 0.00 | 0.00 | 51 | 1013.9 |
| 20260508033152 | 60 | 148 | 1.7 | 3.5 | 0.00 | 0.00 | 0.00 | 48 | 1013.6 |
| 20260508032649 | 60 | 72 | 2.6 | 2.6 | 0.00 | 0.00 | 0.00 | 48 | 1013.7 |
| 20260508032146 | 61 | 81 | 0.0 | 0.9 | 0.00 | 0.00 | 0.00 | 46 | 1013.7 |
| 20260508031643 | 62 | 105 | 0.0 | 1.7 | 0.00 | 0.00 | 0.00 | 45 | 1013.2 |
| 20260508031139 | 62 | 174 | 0.0 | 0.9 | 0.00 | 0.00 | 0.00 | 45 | 1013.4 |
| 20260508030636 | 63 | 106 | 0.0 | 1.7 | 0.00 | 0.00 | 0.00 | 45 | 1013.2 |
| 20260508030134 | 63 | 159 | 1.7 | 2.6 | 0.00 | 0.00 | 0.00 | 43 | 1013.4 |
| 20260508025629 | 64 | 261 | 0.0 | 1.7 | 0.00 | 0.00 | 0.00 | 43 | 1013.4 |
| 20260508025127 | 66 | 209 | 0.9 | 1.7 | 0.00 | 0.00 | 0.00 | 40 | 1013.2 |
| 20260508024622 | 66 | 304 | 1.7 | 5.2 | 0.00 | 0.00 | 0.00 | 39 | 1013.1 |
| 20260508024120 | 67 | 296 | 2.6 | 6.1 | 0.00 | 0.00 | 0.00 | 37 | 1013.0 |
| 20260508023616 | 68 | 264 | 3.5 | 7.8 | 0.00 | 0.00 | 0.00 | 37 | 1013.2 |
| 20260508023114 | 68 | 274 | 4.3 | 10.4 | 0.00 | 0.00 | 0.00 | 36 | 1012.9 |
| 20260508022609 | 68 | 296 | 3.5 | 7.0 | 0.00 | 0.00 | 0.00 | 37 | 1013.4 |
| 20260508022107 | 68 | 280 | 6.1 | 9.6 | 0.00 | 0.00 | 0.00 | 36 | 1012.8 |
| 20260508021602 | 69 | 312 | 7.8 | 8.7 | 0.00 | 0.00 | 0.00 | 35 | 1012.8 |
| 20260508021058 | 69 | 282 | 7.8 | 7.8 | 0.00 | 0.00 | 0.00 | 35 | 1012.9 |
| 20260508020556 | 70 | 281 | 5.2 | 7.8 | 0.00 | 0.00 | 0.00 | 35 | 1012.9 |
| 20260508020054 | 70 | 281 | 3.5 | 7.0 | 0.00 | 0.00 | 0.00 | 34 | 1012.9 |
| 20260508015551 | 70 | 283 | 1.7 | 8.7 | 0.00 | 0.00 | 0.00 | 34 | 1012.5 |
| 20260508015048 | 71 | 289 | 6.1 | 7.8 | 0.00 | 0.00 | 0.00 | 33 | 1012.7 |
| 20260508014544 | 71 | 278 | 6.1 | 8.7 | 0.00 | 0.00 | 0.00 | 33 | 1012.8 |
| 20260508014040 | 71 | 249 | 4.3 | 9.6 | 0.00 | 0.00 | 0.00 | 32 | 1012.8 |
| 20260508013536 | 71 | 308 | 7.8 | 9.6 | 0.00 | 0.00 | 0.00 | 32 | 1012.9 |
| 20260508013034 | 72 | 290 | 1.7 | 7.8 | 0.00 | 0.00 | 0.00 | 32 | 1012.6 |
| 20260508012531 | 71 | 252 | 5.2 | 8.7 | 0.00 | 0.00 | 0.00 | 32 | 1012.5 |
| 20260508012028 | 71 | 277 | 6.1 | 10.4 | 0.00 | 0.00 | 0.00 | 31 | 1012.5 |
| 20260508011527 | 72 | 256 | 2.6 | 10.4 | 0.00 | 0.00 | 0.00 | 31 | 1012.5 |
| 20260508011024 | 73 | 282 | 3.5 | 9.6 | 0.00 | 0.00 | 0.00 | 32 | 1012.5 |
| 20260508010520 | 73 | 286 | 5.2 | 10.4 | 0.00 | 0.00 | 0.00 | 31 | 1012.6 |
| 20260508010018 | 73 | 265 | 3.5 | 5.2 | 0.00 | 0.00 | 0.00 | 31 | 1012.5 |